P/2018 R1 ( LINEAR-Skiff )

Japanese version
Home page
Updated on September 10, 2018

---------------------------------------------------------------------

* Profile

Recovery Date September 7, 2018
Magnitude 19.8 mag
Recoverer E. Schwab (Egelsbach, Germany), D. Abreu (European Space Agency's Optical Ground Station, Tenerife)

* Orbital Elements

Epoch 2018 Oct. 9.0 TT = JDT 2458400.5
T 2018 Oct. 4.58710 TT                                  MPCW
q   2.1910673            (2000.0)            P               Q
n   0.11528544     Peri.  308.47883     +0.92917375     -0.24629692
a   4.1810600      Node    67.33485     +0.35567271     +0.79878420
e   0.4759541      Incl.   17.37964     -0.10066311     +0.54889127
P   8.55
From 95 observations 2001 Aug. 19-2018 Sept. 8, mean residual 0".6.

* Magnitudes Graph

        m1 = 6.8 + 5 log d + 30.0 log r

---------------------------------------------------------------------

The orbital elements are published on M.P.E.C. 2018-R59.
The magnitudes graphs are made with Comet for Windows.

---------------------------------------------------------------------

Copyright(C) Seiichi Yoshida (comet@aerith.net). All rights reserved.